Weather History for Rock Springs, WY

Change the Weather History Date:

Tuesday, June 25, 2013

  Actual Average Record
Temperature  
Mean Temperature 64 °F 64 °F  
Max Temperature 80 °F 79 °F 93 °F (2012)
Min Temperature 47 °F 50 °F 35 °F (1966)
Degree Days  
Heating Degree Days 1 3  
Month to date heating degree days 62 153  
Since 1 June heating degree days 62 153  
Since 1 July heating degree days 7646 8128  
Cooling Degree Days 0 2  
Month to date cooling degree days 40 21  
Year to date cooling degree days 41 22  
Since 1 June cooling degree days 40 21  
Growing Degree Days 12 (Base 50)    
Moisture  
Dew Point 38 °F    
Average Humidity 51    
Maximum Humidity 82    
Minimum Humidity 19    
Precipitation  
Precipitation T in 0.02 in 0.50 in (1985)
Month to date precipitation T 0.69  
Year to date precipitation 1.49 4.42  
Sea Level Pressure  
Sea Level Pressure 29.87 in    
Wind  
Wind Speed 14 mph (WSW)    
Max Wind Speed 32 mph    
Max Gust Speed 41 mph    
Visibility 10 miles    
Events Rain    
T = Trace of Precipitation, MM = Missing Value Source: NWS Daily Summary

Daily Weather History Graph

Daily Weather History Graph

Search for Another Location

Airport:

Trip Planner

Search our weather history database for the weather conditions in past years. The results will help you decide how hot, cold, wet, or windy it might be!

Date:

Astronomy

Jun. 25, 2013 Rise Set
Actual Time 5:43 AM MDT 8:54 PM MDT
Civil Twilight 5:09 AM MDT 9:28 PM MDT
Nautical Twilight 4:25 AM MDT 10:12 PM MDT
Astronomical Twilight 3:32 AM MDT 11:04 PM MDT
Moon 10:39 PM MDT (6/25) 8:29 AM MDT (6/25)
Length of Visible Light 16h 19m
Length of Day
15h 11m
Waning Gibbous, 92% of the Moon is Illuminated
Jun 25
Waning Gibbous
Jun 29
Last Quarter
Jul 8
New
Jul 15
First Quarter
Jul 22
Full

Hourly Weather History & Observations

Time (MDT) Temp. Dew Point Humidity Pressure Visibility Wind Dir Wind Speed Gust Speed Precip Events Conditions
12:54 AM 52.0 °F 44.1 °F 74% 29.81 in 10.0 mi West 12.7 mph - 0.00 in Rain Light Rain
1:54 AM 50.0 °F 46.9 °F 89% 29.80 in 10.0 mi South 8.1 mph - 0.00 in Rain Light Rain
2:54 AM 48.9 °F 45.0 °F 86% 29.79 in 10.0 mi South 6.9 mph - 0.00 in   Partly Cloudy
3:54 AM 48.9 °F 42.1 °F 77% 29.81 in 10.0 mi South 5.8 mph - N/A   Clear
4:54 AM 48.0 °F 42.1 °F 80% 29.81 in 10.0 mi SSW 6.9 mph - N/A   Clear
5:54 AM 46.9 °F 41.0 °F 80% 29.83 in 10.0 mi SW 8.1 mph - N/A   Clear
6:54 AM 52.0 °F 42.1 °F 69% 29.85 in 10.0 mi SW 5.8 mph - N/A   Clear
7:54 AM 55.0 °F 42.1 °F 62% 29.87 in 10.0 mi SW 10.4 mph - N/A   Clear
8:54 AM 60.1 °F 42.1 °F 51% 29.88 in 10.0 mi West 15.0 mph - N/A   Clear
9:54 AM 62.1 °F 39.9 °F 44% 29.89 in 10.0 mi West 16.1 mph - N/A   Clear
10:54 AM 66.0 °F 39.9 °F 38% 29.89 in 10.0 mi WSW 18.4 mph 24.2 mph N/A   Clear
11:54 AM 71.1 °F 37.9 °F 30% 29.90 in 10.0 mi West 23.0 mph 28.8 mph N/A   Clear
12:54 PM 75.0 °F 35.1 °F 23% 29.89 in 10.0 mi SW 20.7 mph 31.1 mph N/A   Partly Cloudy
1:54 PM 75.0 °F 33.1 °F 22% 29.89 in 10.0 mi WSW 25.3 mph 41.4 mph N/A   Partly Cloudy
2:54 PM 75.9 °F 34.0 °F 22% 29.89 in 10.0 mi West 26.5 mph 40.3 mph N/A   Scattered Clouds
3:54 PM 79.0 °F 33.1 °F 19% 29.87 in 10.0 mi West 24.2 mph 33.4 mph N/A   Mostly Cloudy
4:54 PM 79.0 °F 33.1 °F 19% 29.87 in 10.0 mi West 24.2 mph 34.5 mph N/A   Clear
5:54 PM 78.1 °F 34.0 °F 20% 29.88 in 10.0 mi West 20.7 mph 26.5 mph N/A   Partly Cloudy
6:54 PM 77.0 °F 33.1 °F 20% 29.87 in 10.0 mi West 17.3 mph 26.5 mph N/A   Clear
7:54 PM 73.9 °F 34.0 °F 23% 29.89 in 10.0 mi WNW 15.0 mph 26.5 mph N/A   Clear
8:54 PM 70.0 °F 36.0 °F 29% 29.91 in 10.0 mi NW 12.7 mph - N/A   Clear
9:54 PM 64.9 °F 36.0 °F 34% 29.93 in 10.0 mi WNW 5.8 mph - N/A   Partly Cloudy
10:54 PM 66.0 °F 36.0 °F 33% 29.93 in 10.0 mi WNW 3.5 mph - N/A   Scattered Clouds
11:54 PM 64.0 °F 35.1 °F 34% 29.91 in 10.0 mi NW 4.6 mph - N/A   Clear